[[{"header":{"parameterUnit":"m.s-1","parameterCategory":1,"la1":30.2991,"la2":30.254,"lo1":-89.0895,"lo2":-89.0444,"dy":0.0017,"dx":0.0017,"nx":28,"ny":28,"refTime":"2025-08-27T21:00:00:Z","depth":0,"parameterNumber":2,"parameterNumberName":"U-component_of_WINDS"},"data":[0,0,0,0,0,0,0,0,0,0,0,0,0,0,0,0,0,0,0,0,0,0,0,0,0,0,0,0,0,0,0,0,0,0,0,0,0,0,0,0,0,0,0,0,0,0,0,0,0,0,0,0,0,0,0,0,0,0,2.9053,2.9053,0,2.9031,2.9031,2.9031,2.895,2.8948,2.8946,2.8944,2.892,2.8921,2.8922,0,0,0,0,0,0,0,0,0,0,0,0,0,2.9022,2.9023,2.9053,2.9053,2.9053,2.9031,2.9031,2.9031,2.895,2.8948,2.8946,2.8944,2.8919,2.8921,2.8922,0,0,0,0,0,0,0,0,0,0,0,0,0,2.9021,2.9023,2.9054,2.901,2.9006,2.9031,2.9031,2.9031,2.8951,2.8948,2.8945,2.8943,2.8919,2.8921,2.8922,2.8987,0,0,2.8927,2.8928,0,0,0,0,0,0,0,0,2.9021,2.9022,2.9017,2.9013,2.9009,2.899,2.9011,2.9016,2.8951,2.8972,2.8944,2.8941,2.8945,2.8945,2.8946,2.8986,2.8985,2.8927,2.8928,2.8929,2.8929,0,0,0,0,0,0,0,2.9022,2.9023,2.9045,2.9017,2.9012,2.899,2.8987,2.9011,2.8974,2.897,2.8964,2.8962,2.8943,2.8945,2.8945,2.8984,2.8927,2.8928,2.8929,2.893,2.907,2.9072,0,0,0,0,0,0,2.9028,2.9024,2.9045,2.9044,2.9008,2.8993,2.899,2.8999,2.8974,2.8967,2.8965,2.8959,2.8944,2.8944,2.8944,2.9014,2.8929,2.893,2.8931,2.9067,2.907,2.9073,0,0,0,0,0,0,2.9028,2.9031,2.9046,2.9032,2.9032,2.8997,2.9008,2.9,2.9002,2.897,2.8963,2.8974,2.8942,2.8942,2.8976,2.9012,2.8931,2.8932,2.9064,2.9068,2.9072,2.9156,0,0,0,0,0,0,2.9027,2.9031,2.9057,2.9033,2.9034,2.908,2.901,2.9002,2.9006,2.8997,2.8977,2.8971,2.8939,2.8974,2.8977,2.9012,2.8934,2.906,2.9066,2.907,2.915,2.9163,2.9174,0,0,0,0,0,2.9026,2.9082,2.9059,2.9062,2.9065,2.9082,2.9082,2.9045,2.9009,2.9033,2.9011,2.8972,2.9008,2.8978,2.8981,2.9017,2.9058,2.9064,2.907,2.9145,2.916,2.9174,0,0,0,0,0,0,2.9111,2.9079,2.9052,2.9102,2.9095,2.9068,2.9098,2.9064,2.9067,2.9059,2.9013,2.9009,2.9048,2.9037,2.9004,2.9076,2.9026,2.9033,2.9082,2.9096,2.9108,2.9108,2.8935,0,0,0,0,0,2.9136,2.9154,2.9124,2.9171,2.9169,2.9134,2.9141,2.9112,2.9103,2.91,2.9081,2.9073,2.9082,2.9089,2.9096,2.9149,2.9141,2.9175,2.9187,2.9197,2.9203,2.9225,2.9238,2.9094,2.9094,2.9093,0,0,2.9187,2.9171,2.9185,2.9187,2.9179,2.9196,2.9132,2.9155,2.9166,2.9103,2.9132,2.9119,2.9106,2.9149,2.9166,2.914,2.9241,2.9205,2.9213,2.9213,2.9232,2.9246,2.9258,2.9098,2.9097,2.9096,0,0,2.9287,2.9279,2.9315,2.9307,2.9295,2.9271,2.9279,2.9257,2.9245,2.9274,2.9226,2.9239,2.9257,2.9248,2.9246,2.934,2.9302,2.9344,2.9405,2.9427,2.9438,2.9448,2.9477,2.9488,2.9351,2.9351,2.9351,0,2.9351,2.9376,2.9338,2.9361,2.9362,2.9306,2.934,2.9334,2.9325,2.9326,2.9297,2.9315,2.9304,2.934,2.9363,2.9365,2.9371,2.9345,2.944,2.9449,2.9458,2.9485,2.9496,2.9356,2.9355,2.9355,2.9354,0,2.9453,2.9471,2.9502,2.9492,2.9497,2.9526,2.9489,2.9498,2.947,2.9448,2.9476,2.946,2.946,2.9468,2.9441,2.95,2.9483,2.9449,2.9396,2.9477,2.9501,2.9512,2.9363,2.9361,2.936,2.9358,0,0,2.9606,2.9573,2.9585,2.9578,2.9559,2.9571,2.9596,2.9597,2.9603,2.9598,2.9615,2.9631,2.9597,2.9595,2.9566,2.9586,2.9655,2.9548,2.9547,2.9564,2.9714,2.9737,2.975,2.9631,2.9633,2.9635,2.9713,0,2.9697,2.9738,2.9703,2.975,2.9763,2.9709,2.973,2.972,2.97,2.9707,2.9685,2.9694,2.9652,2.9649,2.9667,2.9644,2.9684,2.9638,2.9643,2.9644,2.9644,2.9763,2.9789,2.9864,2.9723,2.9725,2.9726,0,2.981,2.9808,2.9856,2.983,2.9834,2.9854,2.9849,2.9858,2.9844,2.9827,2.9824,2.9789,2.9808,2.976,2.9785,2.9754,2.9755,2.9743,2.9745,2.9741,2.9687,2.9758,2.9887,2.9897,2.9741,2.974,2.9739,0,2.991,2.992,2.9949,2.9945,2.9917,2.9931,2.992,2.9904,2.9905,2.99,2.9899,2.9899,2.9897,2.9895,2.9859,2.9828,2.9887,2.9837,2.9871,2.9871,2.9883,2.9882,3.0009,2.989,2.989,2.989,2.989,0,3.0013,3.0043,2.9992,3.001,3.0041,2.9999,3.0031,3.0014,2.9999,3.001,2.9965,2.9976,2.993,2.9935,2.9908,2.9929,2.993,2.9915,2.9907,2.9917,2.9918,2.9914,2.9906,2.9893,2.9892,2.9892,2.9891,0,3.0129,3.0097,3.0123,3.0094,3.0087,3.0111,3.0085,3.0098,3.0075,3.0089,3.009,3.0054,3.0057,3.0022,3.002,3.0001,3.0034,3.0019,3.0039,3.0032,3.0066,3.0062,3.0192,3.0205,3.0082,3.0084,3.0085,0,3.0195,3.0216,3.0188,3.0192,3.0183,3.0191,3.0191,3.0151,3.0152,3.0136,3.015,3.0151,3.0148,3.0156,3.0128,3.0125,3.0107,3.0153,3.0106,3.0114,3.0102,3.0099,3.0099,3.0161,3.0163,3.0164,3.0165,0,3.0313,3.0296,3.0298,3.0294,3.0295,3.029,3.0282,3.0288,3.0243,3.0247,3.025,3.0248,3.0244,3.0243,3.0235,3.0221,3.0184,3.018,3.0187,3.0196,3.0204,3.0195,3.006,3.0177,3.0176,3.0175,3.0174,3.0174,3.0403,3.0418,3.0399,3.0402,3.0391,3.0384,3.0394,3.0371,3.0373,3.0366,3.0343,3.0349,3.0331,3.0315,3.0304,3.0307,3.0284,3.0296,3.0298,3.03,3.0304,3.0207,3.0306,3.0306,3.0305,3.0305,3.0305,0,3.0515,3.05,3.0503,3.0492,3.0493,3.046,3.0448,3.0451,3.0457,3.0444,3.0442,3.0443,3.0442,3.0413,3.0407,3.0415,3.0397,3.0414,3.0411,3.0408,3.0327,3.0319,3.0428,3.0428,3.0428,3.0428,3.0428,3.0428,3.0573,3.0595,3.0574,3.0589,3.0574,3.0579,3.0575,3.0566,3.0555,3.0558,3.0557,3.0538,3.0517,3.0509,3.0505,3.0497,3.0495,3.0516,3.0502,3.0426,3.0414,3.0402,3.0395,3.0517,3.0517,3.0581,3.0582,3.0582]},{"header":{"parameterUnit":"m.s-1","parameterCategory":1,"la1":30.2991,"la2":30.254,"lo1":-89.0895,"lo2":-89.0444,"dy":0.0017,"dx":0.0017,"nx":28,"ny":28,"refTime":"2025-08-27T21:00:00:Z","depth":0,"parameterNumber":3,"parameterNumberName":"V-component_of_WINDS"},"data":[0,0,0,0,0,0,0,0,0,0,0,0,0,0,0,0,0,0,0,0,0,0,0,0,0,0,0,0,0,0,0,0,0,0,0,0,0,0,0,0,0,0,0,0,0,0,0,0,0,0,0,0,0,0,0,0,0,0,2.2495,2.2496,0,2.2618,2.2619,2.2621,2.2622,2.2621,2.2619,2.2618,2.2744,2.2748,2.2753,0,0,0,0,0,0,0,0,0,0,0,0,0,2.2259,2.2264,2.2495,2.2496,2.2498,2.2618,2.2619,2.2621,2.2623,2.2621,2.2619,2.2617,2.2742,2.2748,2.2753,0,0,0,0,0,0,0,0,0,0,0,0,0,2.237,2.2265,2.2494,2.2513,2.2516,2.2617,2.2619,2.2621,2.2623,2.2621,2.2618,2.2616,2.274,2.2747,2.2754,2.2845,0,0,2.2776,2.2779,0,0,0,0,0,0,0,0,2.2364,2.2378,2.2509,2.2512,2.2515,2.2602,2.2582,2.2696,2.2624,2.2582,2.2618,2.2615,2.2698,2.2709,2.2737,2.2851,2.2856,2.2777,2.2781,2.2784,2.2786,0,0,0,0,0,0,0,2.2356,2.2373,2.2543,2.2511,2.2515,2.2515,2.2528,2.2604,2.2652,2.2586,2.2586,2.2601,2.27,2.273,2.274,2.2858,2.2777,2.2783,2.2787,2.279,2.3049,2.3051,0,0,0,0,0,0,2.2345,2.2367,2.254,2.2547,2.2432,2.2521,2.2535,2.2577,2.2651,2.266,2.2603,2.26,2.2719,2.2732,2.2744,2.2853,2.2784,2.2791,2.2795,2.3046,2.3049,2.3052,0,0,0,0,0,0,2.234,2.236,2.2535,2.2457,2.2479,2.2527,2.2574,2.258,2.2611,2.2664,2.2672,2.2625,2.2718,2.2734,2.2819,2.2858,2.2794,2.2801,2.3043,2.3047,2.3051,2.3073,0,0,0,0,0,0,2.2333,2.2358,2.2394,2.2458,2.2483,2.2608,2.2576,2.2585,2.2623,2.2621,2.2687,2.2696,2.2717,2.2808,2.2826,2.2867,2.2806,2.304,2.3045,2.3049,2.3069,2.3077,2.3084,0,0,0,0,0,2.2324,2.2396,2.2396,2.2417,2.2529,2.261,2.2625,2.2648,2.2626,2.2662,2.2695,2.2694,2.2851,2.2817,2.2837,2.288,2.3038,2.3043,2.3049,2.3066,2.3076,2.3084,0,0,0,0,0,0,2.2336,2.2405,2.2405,2.25,2.2549,2.2611,2.2657,2.2659,2.2715,2.2711,2.2737,2.2752,2.2836,2.2867,2.2828,2.297,2.2941,2.2951,2.2947,2.2957,2.2964,2.2955,2.2812,0,0,0,0,0,2.235,2.241,2.2467,2.2545,2.257,2.2609,2.2645,2.2658,2.271,2.2731,2.2771,2.2821,2.2882,2.2921,2.298,2.3073,2.3086,2.3113,2.312,2.3126,2.3134,2.3183,2.3195,2.3071,2.3071,2.3071,0,0,2.2379,2.2424,2.2461,2.2548,2.2588,2.2649,2.2626,2.2693,2.2738,2.2742,2.2823,2.2854,2.2912,2.3,2.3042,2.3029,2.3171,2.3133,2.3138,2.3143,2.319,2.3202,2.3212,2.3075,2.3074,2.3074,0,0,2.2462,2.2503,2.2571,2.2611,2.2671,2.2696,2.2712,2.2773,2.2793,2.2875,2.2878,2.2932,2.3036,2.3076,2.311,2.3205,2.3205,2.3224,2.3263,2.331,2.332,2.3329,2.3361,2.3372,2.3232,2.3232,2.3232,0,2.2491,2.2583,2.2606,2.2672,2.2709,2.2714,2.2782,2.282,2.2896,2.2921,2.2906,2.3034,2.3074,2.317,2.3193,2.3221,2.3239,2.3217,2.3317,2.3326,2.3334,2.3365,2.3377,2.3234,2.3234,2.3233,2.3233,0,2.2614,2.2678,2.2725,2.2797,2.284,2.2907,2.2939,2.2979,2.2988,2.3014,2.3097,2.3144,2.3211,2.3235,2.3245,2.3332,2.3322,2.3311,2.3283,2.3347,2.3377,2.3389,2.3236,2.3236,2.3235,2.3235,0,0,2.271,2.2792,2.2809,2.284,2.2905,2.2955,2.302,2.3085,2.3118,2.317,2.3225,2.3311,2.3301,2.3339,2.3354,2.3395,2.3464,2.3379,2.3381,2.3392,2.3561,2.3567,2.3581,2.3464,2.3467,2.3469,2.3555,0,2.2799,2.2916,2.2937,2.3039,2.3097,2.3101,2.3158,2.3203,2.3229,2.3281,2.3309,2.3369,2.3352,2.3374,2.3416,2.3447,2.3498,2.3441,2.3514,2.3516,2.3498,2.3597,2.3605,2.3684,2.3567,2.3569,2.357,0,2.292,2.2973,2.308,2.3134,2.3159,2.321,2.3269,2.332,2.337,2.3386,2.3427,2.3436,2.3502,2.3471,2.3562,2.3522,2.3553,2.3572,2.3576,2.3583,2.3547,2.3605,2.3711,2.3722,2.3589,2.3588,2.3586,0,2.2976,2.3075,2.3151,2.3178,2.3244,2.3279,2.3308,2.3356,2.3393,2.3445,2.3468,2.3527,2.356,2.3604,2.3628,2.3603,2.3716,2.3687,2.373,2.3729,2.3753,2.3751,2.3864,2.3775,2.3775,2.3775,2.3774,0,2.3073,2.3138,2.3177,2.3224,2.3295,2.3318,2.3389,2.3417,2.3459,2.351,2.3518,2.3566,2.3594,2.3646,2.3665,2.3736,2.3751,2.3764,2.3768,2.3763,2.3761,2.3783,2.3777,2.3778,2.3777,2.3776,2.3776,0,2.3149,2.3178,2.3261,2.3315,2.333,2.3381,2.3427,2.3472,2.3496,2.3561,2.3577,2.3616,2.3676,2.3704,2.378,2.3792,2.3872,2.3873,2.3855,2.3856,2.3896,2.3892,2.4027,2.4044,2.3944,2.3945,2.3946,0,2.3209,2.3258,2.3318,2.3352,2.3382,2.3438,2.3474,2.3498,2.3536,2.3595,2.3632,2.3693,2.3743,2.3839,2.3873,2.393,2.3931,2.3974,2.394,2.3932,2.393,2.3926,2.393,2.3981,2.3982,2.3982,2.3983,0,2.331,2.3321,2.3374,2.3431,2.3475,2.3521,2.3566,2.3594,2.3624,2.3666,2.3728,2.3766,2.3842,2.3901,2.396,2.3989,2.399,2.3993,2.4006,2.4001,2.3987,2.3993,2.3871,2.399,2.399,2.3989,2.3989,2.3988,2.3379,2.3422,2.347,2.3527,2.3563,2.3605,2.3649,2.3678,2.3729,2.3793,2.3803,2.3868,2.3914,2.3993,2.4024,2.4074,2.4064,2.4082,2.4087,2.4091,2.4092,2.398,2.4085,2.4085,2.4085,2.4085,2.4084,0,2.3479,2.351,2.3562,2.3624,2.3669,2.3667,2.3716,2.3753,2.381,2.3853,2.3901,2.3971,2.4028,2.4065,2.4122,2.4155,2.4157,2.4169,2.4167,2.4173,2.4099,2.4082,2.4166,2.4166,2.4166,2.4166,2.4166,2.4166,2.3537,2.3609,2.3625,2.3714,2.3744,2.3807,2.3835,2.3873,2.3907,2.3984,2.4031,2.4055,2.4095,2.4155,2.4206,2.4215,2.4235,2.4248,2.4256,2.4187,2.4178,2.417,2.4154,2.4252,2.4252,2.4325,2.4326,2.4327]}]]